Date String (YYYY-MM-DD hh:mm:ss) UTC,Instrument flags,absolute air pressure of the measurement (hPa),sample flow rate (lpm),inlet stack bypass flow (lpm),air temperature of the measurement (°C),ambient temperature measured by the external sensor (°C),aerosol sample conditioner tube jacket temperature (°C),OPC LED temperature (°C),internal box temperature (°C),relative humidity of the measurement (%),span deviation,mass concentration of particles derived from Lorenz-Mie calculation of OPC scattering (μg/m³),mass concentration of particles derived from Lorenz-Mie calculation of OPC scattering (μg/m³),mass concentration of particles derived from Lorenz-Mie calculation of OPC scattering (μg/m³)
DateTimeUTC,F1_M11,P_M11,Q1_M11,Q2_M11,T1_M11,T2_M11,T3_M11,T4_M11,T5_M11,U1_M11,ZSPAN_M11,X2_M11,X0_M11,X1_M11
2024-04-28 02:00:00,SystemResetWarning,0825.4,5.00,000.00,021.9,021.2,000.0,030.4,023.7,026.8,0000.0,0001.02,0001.27,0000.90
2024-04-28 02:01:00,SystemResetWarning,0825.4,5.00,000.00,021.9,021.2,000.0,030.4,023.7,026.8,0000.0,0001.01,0001.23,0000.90
2024-04-28 02:02:00,SystemResetWarning,0825.4,4.99,000.00,021.9,021.2,000.0,030.4,023.7,027.0,0000.0,0001.00,0001.21,0000.91
2024-04-28 02:03:00,SystemResetWarning,0825.4,4.99,000.00,021.9,021.2,000.0,030.4,023.7,027.6,0000.0,0001.01,0001.21,0000.91
2024-04-28 02:04:00,SystemResetWarning,0825.4,5.00,000.00,021.9,021.2,000.0,030.4,023.7,027.1,0000.0,0001.02,0001.22,0000.92
2024-04-28 02:05:00,SystemResetWarning,0825.5,5.01,000.00,021.9,021.2,000.0,030.4,023.7,026.9,0000.0,0001.03,0001.23,0000.93
2024-04-28 02:06:00,SystemResetWarning,0825.5,5.01,000.00,021.9,021.2,000.0,030.4,023.7,026.9,0000.0,0001.03,0001.19,0000.94
2024-04-28 02:07:00,SystemResetWarning,0825.5,5.00,000.00,021.9,021.2,000.0,030.4,023.7,026.8,0000.0,0001.04,0001.20,0000.95
2024-04-28 02:08:00,SystemResetWarning,0825.5,5.00,000.00,021.9,021.2,000.0,030.4,023.7,026.8,0000.0,0001.03,0001.18,0000.96
2024-04-28 02:09:00,SystemResetWarning,0825.5,5.00,000.00,021.9,021.2,000.0,030.4,023.7,026.8,0000.0,0001.03,0001.15,0000.97
2024-04-28 02:10:00,SystemResetWarning,0825.5,4.99,000.00,021.9,021.2,000.0,030.4,023.7,026.8,0000.0,0001.03,0001.13,0000.98
2024-04-28 02:11:00,SystemResetWarning,0825.5,5.00,000.00,021.9,021.2,000.0,030.4,023.7,026.8,0000.0,0001.05,0001.15,0001.00
2024-04-28 02:12:00,SystemResetWarning,0825.5,5.01,000.00,021.9,021.2,000.0,030.4,023.7,026.8,0000.0,0001.06,0001.16,0001.02
2024-04-28 02:13:00,SystemResetWarning,0825.6,5.00,000.00,021.9,021.2,000.0,030.4,023.7,026.8,0000.0,0001.07,0001.16,0001.02
2024-04-28 02:14:00,SystemResetWarning,0825.5,5.00,000.00,021.9,021.2,000.0,030.4,023.7,026.8,0000.0,0001.08,0001.96,0001.03
2024-04-28 02:15:00,SystemResetWarning,0825.6,5.02,000.00,021.9,021.2,000.0,030.4,023.7,026.9,0000.0,0001.09,0002.11,0001.04
2024-04-28 02:16:00,SystemResetWarning,0825.6,5.00,000.00,021.9,021.2,000.0,030.4,023.7,026.9,0000.0,0001.10,0002.19,0001.04
2024-04-28 02:17:00,SystemResetWarning,0825.5,4.99,000.00,021.9,021.3,000.0,030.4,023.8,026.8,0000.0,0001.10,0002.19,0001.05
2024-04-28 02:18:00,SystemResetWarning,0825.5,4.99,000.00,021.9,021.3,000.0,030.4,023.7,026.9,0000.0,0001.13,0002.25,0001.06
2024-04-28 02:19:00,SystemResetWarning,0825.6,4.99,000.00,021.9,021.3,000.0,030.4,023.7,026.9,0000.0,0001.17,0002.34,0001.08
2024-04-28 02:20:00,SystemResetWarning,0825.6,5.00,000.00,021.9,021.3,000.0,030.4,023.8,027.0,0000.0,0001.18,0002.37,0001.09
2024-04-28 02:21:00,SystemResetWarning,0825.6,5.00,000.00,021.9,021.3,000.0,030.4,023.7,026.9,0000.0,0001.21,0002.40,0001.10
2024-04-28 02:22:00,SystemResetWarning,0825.6,5.01,000.00,021.9,021.3,000.0,030.4,023.7,026.9,0000.0,0001.24,0002.43,0001.12
2024-04-28 02:23:00,SystemResetWarning,0825.7,5.00,000.00,021.9,021.3,000.0,030.4,023.7,026.9,0000.0,0001.26,0002.49,0001.13
2024-04-28 02:24:00,SystemResetWarning,0825.7,5.01,000.00,021.9,021.3,000.0,030.4,023.7,027.0,0000.0,0001.30,0002.96,0001.14
2024-04-28 02:25:00,SystemResetWarning,0825.7,5.00,000.00,021.9,021.3,000.0,030.4,023.8,027.0,0000.0,0001.32,0002.26,0001.15
2024-04-28 02:26:00,SystemResetWarning,0825.7,4.99,000.00,021.9,021.3,000.0,030.4,023.7,027.0,0000.0,0001.33,0002.10,0001.17
2024-04-28 02:27:00,SystemResetWarning,0825.7,5.00,000.00,021.9,021.3,000.0,030.4,023.8,027.0,0000.0,0001.35,0002.06,0001.19
2024-04-28 02:28:00,SystemResetWarning,0825.7,5.00,000.00,021.9,021.3,000.0,030.4,023.8,027.1,0000.0,0001.37,0002.08,0001.20
2024-04-28 02:29:00,SystemResetWarning,0825.8,5.00,000.00,021.9,021.3,000.0,030.4,023.8,027.2,0000.0,0001.36,0002.03,0001.21
2024-04-28 02:30:00,SystemResetWarning,0825.8,5.00,000.00,021.9,021.3,000.0,030.4,023.8,027.2,0000.0,0001.34,0001.96,0001.22
2024-04-28 02:31:00,SystemResetWarning,0825.8,5.00,000.00,021.9,021.3,000.0,030.4,023.8,027.3,0000.0,0001.33,0001.94,0001.22
2024-04-28 02:32:00,SystemResetWarning,0825.8,5.00,000.00,021.9,021.3,000.0,030.4,023.8,027.4,0000.0,0001.35,0001.97,0001.24
2024-04-28 02:33:00,SystemResetWarning,0825.8,5.00,000.00,021.9,021.3,000.0,030.4,023.8,027.7,0000.0,0001.35,0001.96,0001.26
2024-04-28 02:34:00,SystemResetWarning,0825.8,5.00,000.00,021.9,021.3,000.0,030.4,023.8,027.5,0000.0,0001.37,0001.97,0001.27
2024-04-28 02:35:00,SystemResetWarning,0825.8,5.00,000.00,021.9,021.3,000.0,030.4,023.8,027.5,0000.0,0001.36,0001.63,0001.28
2024-04-28 02:36:00,SystemResetWarning,0825.9,5.00,000.00,021.9,021.3,000.0,030.4,023.8,027.4,0000.0,0001.36,0001.50,0001.30
2024-04-28 02:37:00,SystemResetWarning,0825.9,5.00,000.00,021.9,021.3,000.0,030.4,023.8,027.5,0000.0,0001.40,0001.74,0001.32
2024-04-28 02:38:00,SystemResetWarning,0825.9,4.99,000.00,021.9,021.3,000.0,030.4,023.8,027.5,0000.0,0001.42,0001.81,0001.33
2024-04-28 02:39:00,SystemResetWarning,0825.9,5.01,000.00,021.9,021.3,000.0,030.4,023.8,027.5,0000.0,0001.44,0001.81,0001.35
2024-04-28 02:40:00,SystemResetWarning,0825.9,5.00,000.00,021.9,021.3,000.0,030.4,023.8,027.5,0000.0,0001.47,0001.89,0001.37
2024-04-28 02:41:00,SystemResetWarning,0825.9,5.00,000.00,021.9,021.3,000.0,030.4,023.8,027.5,0000.0,0001.50,0001.94,0001.39
2024-04-28 02:42:00,SystemResetWarning,0825.9,5.00,000.00,021.9,021.3,000.0,030.4,023.8,027.6,0000.0,0001.53,0001.97,0001.41
2024-04-28 02:43:00,SystemResetWarning,0825.9,5.00,000.00,021.9,021.3,000.0,030.4,023.8,027.6,0000.0,0001.55,0003.10,0001.43
2024-04-28 02:44:00,SystemResetWarning,0825.9,5.00,000.00,021.9,021.3,000.0,030.4,023.8,027.5,0000.0,0001.55,0003.13,0001.44
2024-04-28 02:45:00,SystemResetWarning,0825.9,4.99,000.00,021.9,021.3,000.0,030.4,023.8,027.5,0000.0,0001.58,0003.15,0001.47
2024-04-28 02:46:00,SystemResetWarning,0825.9,4.99,000.00,021.9,021.3,000.0,030.4,023.8,027.5,0000.0,0001.61,0003.20,0001.50
2024-04-28 02:47:00,SystemResetWarning,0825.9,4.99,000.00,021.9,021.3,000.0,030.4,023.8,027.5,0000.0,0001.66,0003.30,0001.54
2024-04-28 02:48:00,SystemResetWarning,0825.9,5.00,000.00,022.0,021.3,000.0,030.4,023.8,027.4,0000.0,0001.67,0003.17,0001.57
2024-04-28 02:49:00,SystemResetWarning,0825.9,5.00,000.00,021.9,021.3,000.0,030.5,023.8,027.4,0000.0,0001.70,0003.08,0001.60
2024-04-28 02:50:00,SystemResetWarning,0825.9,5.00,000.00,021.9,021.3,000.0,030.5,023.8,027.5,0000.0,0001.75,0003.16,0001.62
2024-04-28 02:51:00,SystemResetWarning,0825.9,5.00,000.00,021.9,021.3,000.0,030.5,023.8,027.5,0000.0,0001.74,0003.10,0001.64
2024-04-28 02:52:00,SystemResetWarning,0825.9,5.00,000.00,022.0,021.3,000.0,030.5,023.8,027.6,0000.0,0001.73,0003.08,0001.64
2024-04-28 02:53:00,SystemResetWarning,0825.9,5.01,000.00,022.0,021.3,000.0,030.5,023.8,027.6,0000.0,0001.75,0003.11,0001.64
2024-04-28 02:54:00,SystemResetWarning,0825.9,5.00,000.00,021.9,021.3,000.0,030.5,023.8,027.6,0000.0,0001.76,0002.61,0001.65
2024-04-28 02:55:00,SystemResetWarning,0825.9,5.01,000.00,021.9,021.3,000.0,030.5,023.8,027.7,0000.0,0001.78,0002.00,0001.67
2024-04-28 02:56:00,SystemResetWarning,0825.9,5.00,000.00,021.9,021.3,000.0,030.5,023.8,027.8,0000.0,0001.78,0001.99,0001.68
2024-04-28 02:57:00,SystemResetWarning,0825.9,4.99,000.00,021.9,021.3,000.0,030.5,023.8,028.1,0000.0,0001.78,0001.98,0001.68
2024-04-28 02:58:00,SystemResetWarning,0825.9,4.99,000.00,021.9,021.3,000.0,030.5,023.8,027.8,0000.0,0001.77,0001.90,0001.67
2024-04-28 02:59:00,SystemResetWarning,0826.0,5.00,000.00,021.9,021.3,000.0,030.5,023.8,027.7,0000.0,0001.78,0002.78,0001.68
